Location: Domléger
(50.1596°N, 2.0855°E)
Time: 22:53:32
(UTC+00:00)

Daily predictions for brighter satellites

Satellite Brightness Start Highest point End
(mag) Time Altitude Azimuth Time Altitude Azimuth Time Altitude Azimuth
Cosmos 2098 Rocket 3.5 16:19:23 10° SSE 16:23:39 53° E 16:28:39 10° NNE
USA 290 2.5 16:21:55 10° NNW 16:25:11 75° WSW 16:28:25 10° SSE
Cosmos 2208 Rocket 4.4 16:20:33 10° NNW 16:25:42 70° WSW 16:30:51 10° SSE
Cosmos 1782 2.5 16:23:01 10° S 16:26:34 66° E 16:30:09 10° NNE
Cosmos 1933 4.4 16:23:57 10° SE 16:27:00 23° E 16:30:05 10° NE
Cosmos 2227 Rocket 2.3 16:23:36 10° NNW 16:29:10 55° NE 16:34:42 10° SE
Meteor 1-28 Rocket 3.6 16:26:49 10° NNE 16:29:57 35° E 16:33:01 10° SSE
Cosmos 2369 Rocket 4.1 16:28:14 10° W 16:32:20 20° NW 16:36:29 10° N
CBERS-1 4.0 16:27:47 10° SSE 16:32:52 71° ENE 16:37:58 10° NNW
CENTAUR R/B 3.5 16:35:00 10° W 16:40:46 42° NNW 16:48:00 10° NE
Cosmos 2180 Rocket 4.5 16:34:57 10° S 16:40:59 66° E 16:47:07 10° NNE
Cosmos 1697 Rocket 3.1 16:36:18 10° S 16:41:36 46° ESE 16:46:57 10° NE
Cosmos 1626 Rocket 4.2 16:38:37 10° NNW 16:42:52 59° W 16:47:04 10° S
Cosmos 2360 4.3 16:37:26 10° SSW 16:43:10 90° ESE 16:48:56 10° NNE
CZ-2D R/B 3.7 16:42:02 10° SE 16:44:42 26° ENE 16:47:24 10° N
Cosmos 2266 Rocket 3.9 16:42:33 10° N 16:48:42 70° ENE 16:54:43 10° SSE
Cosmos 1656 4.1 16:45:24 10° SW 16:50:59 64° WNW 16:56:41 10° NNE
Cosmos 2228 4.3 16:47:59 10° SW 16:51:59 39° WNW 16:56:00 10° N
Cosmos 1606 Rocket 4.0 16:48:43 10° SSE 16:52:53 42° E 16:57:05 10° NNE
Cosmos 1503 Rocket 4.0 16:49:54 10° SSW 16:55:07 78° ESE 17:00:20 10° NNE
Lacrosse 5 rocket 2.3 16:53:06 10° WNW 16:56:22 28° N 16:58:50 14° NE
UNK 3.9 16:54:23 10° NNE 16:58:52 52° E 17:03:18 10° S
CZ-4C R/B 3.5 16:52:08 10° NW 16:59:01 67° SW 17:07:34 10° SSE
Cosmos 1484 Rocket 3.4 16:56:32 10° S 16:59:57 53° W 17:03:23 10° NNW
Radarsat 4.5 16:55:54 10° SSE 17:01:01 69° ENE 17:06:12 10° N
Cosmos 1743 3.5 16:58:02 10° NNW 17:01:10 45° W 17:04:16 10° S
Thor Agena Rocket 3.5 16:55:58 10° SSE 17:01:11 88° ENE 17:06:21 10° NNW
Cosmos 1544 Rocket 4.3 16:57:59 10° SSW 17:02:19 55° WNW 17:06:41 10° N
IRS-P3 4.3 16:58:50 10° SE 17:03:54 47° ENE 17:08:59 10° N
NOSS 2-3 (D) 3.8 17:01:15 10° SSW 17:04:40 37° SE 17:07:02 18° ENE
NOSS 2-3 (E) 3.7 17:01:52 10° SSW 17:05:18 41° SE 17:07:43 18° ENE
Cosmos 1354 Rocket 4.0 17:00:56 10° SSW 17:06:09 70° ESE 17:11:23 10° NNE
IGS 5A 4.0 17:03:31 10° S 17:07:26 59° W 17:11:23 10° NNW
NOSS 2-2 (D) 4.3 17:05:11 10° W 17:07:54 26° NW 17:10:11 12° NNE
Cosmos 1777 Rocket 4.2 17:03:08 10° SSW 17:08:23 73° WNW 17:13:38 10° NNE
Cosmos 2151 3.6 17:05:10 10° NNW 17:09:16 59° W 17:13:21 10° S
Cosmos-2242 4.2 17:06:35 10° SE 17:09:51 22° E 17:11:24 18° ENE
USA 238 DEB 4.0 17:04:26 10° S 17:10:04 40° ESE 17:14:48 16° ENE
USA 238 4.1 17:04:34 10° S 17:10:11 40° ESE 17:14:54 16° ENE
MOS 1 Rocket 3.6 17:05:55 10° SSE 17:10:48 55° ENE 17:15:57 10° N
Cosmos 1898 Rocket 4.4 17:09:49 10° SSE 17:14:03 27° E 17:16:32 18° ENE
Gbstr 26 Del rocket 2.9 17:10:05 10° SW 17:14:09 60° SSE 17:16:29 21° E
Cosmos 1726 Rocket 3.8 17:10:53 10° S 17:15:24 54° E 17:19:51 10° NNE
ERS-1 4.4 17:11:57 10° SSE 17:16:53 66° ENE 17:21:49 10° N
USA 215 3.7 17:12:07 16° ENE 17:17:13 50° N 17:23:30 10° WNW
Cosmos 2082 4.0 17:12:11 10° NNW 17:17:40 45° NE 17:23:07 10° SE
AQUARIUS 4.1 17:14:02 10° SSE 17:18:22 63° ENE 17:22:45 10° N
SMAP 3.2 17:15:03 10° S 17:19:42 77° WSW 17:24:24 10° NNW
Cosmos 1805 3.8 17:17:23 10° NNE 17:20:18 27° ENE 17:23:12 10° SE
Cosmos 2297 Rocket 4.1 17:16:16 10° NW 17:21:16 33° WSW 17:26:14 10° SSW
GEOS 3 Rocket 3.8 17:19:09 17° NE 17:23:16 61° SE 17:28:36 10° SSW
Landsat 7 3.7 17:19:10 10° SSE 17:23:49 88° WSW 17:28:31 10° NNW
YAOGAN 1 3.2 17:22:53 10° SE 17:26:39 31° ENE 17:30:26 10° N
Cosmos 923 Rocket 4.4 17:21:52 10° NNW 17:26:43 38° NE 17:31:31 10° SE
Cosmos 1937 Rocket 4.4 17:25:20 10° SSE 17:29:36 27° E 17:30:51 24° ENE
Okean 1-7 Rocket 4.4 17:25:55 10° NNW 17:30:12 52° W 17:34:25 10° S
SL-16 R/B 4.2 17:29:04 10° ESE 17:29:26 11° ESE 17:29:26 11° ESE
Cosmos 990 Rocket 4.0 17:28:24 10° SSW 17:33:32 85° WNW 17:38:14 13° NNE
Cosmos 1461 3.8 17:30:11 10° WSW 17:33:52 39° NW 17:36:23 18° NNE
CZ-2D R/B 3.7 17:30:45 10° SE 17:34:41 42° ENE 17:38:36 10° N
SL-16 R/B 3.3 17:28:52 10° N 17:34:54 53° WNW 17:40:52 10° SW
SKYMED 2 4.0 17:35:14 26° NE 17:37:07 39° E 17:41:11 10° SSE
COSMOS 2455 4.0 17:33:45 10° SSE 17:38:09 22° ESE 17:38:36 21° E
Okean 1 4.0 17:35:50 10° SSE 17:38:21 28° ESE 17:38:21 28° ESE
Cosmos 1844 Rocket 3.4 17:39:34 10° NNW 17:44:38 32° NE 17:45:49 29° ENE
Cosmos 2219 3.1 17:39:08 10° NNW 17:44:55 78° ENE 17:50:40 10° SSE
SJ-6F 4.4 17:41:05 10° SSE 17:45:04 83° WSW 17:49:07 10° NNW
Cosmos 1980 Rocket 2.2 17:40:19 10° SSW 17:45:54 66° ESE 17:49:21 24° NE
Cosmos 1953 Rocket 3.7 17:42:44 10° NNW 17:47:12 80° W 17:51:39 10° S
Aureole 1 Rocket 3.4 17:43:16 10° S 17:47:53 66° ESE 17:51:47 21° NNE
Meteor 1-26 Rocket 4.2 17:43:59 10° S 17:49:11 51° E 17:52:48 19° NNE
PSLV R/B 3.6 17:50:00 38° ESE 17:50:47 44° ENE 17:54:40 10° N
ARIANE 5 R/B 3.3 17:47:54 10° S 17:52:52 54° W 17:57:55 10° NNW
Cosmos 2263 Rocket 2.5 17:47:25 10° NNW 17:53:04 68° WSW 17:58:42 10° SSE
SL-19 R/B 4.3 17:48:25 10° SE 17:53:44 56° ENE 17:59:23 10° N
BREEZE-M DEB (TANK) 3.8 17:54:16 10° SW 17:57:13 24° SSE 17:57:13 24° SSE
COSMO-SKYMED 1 3.0 17:59:08 38° SE 17:59:08 38° SE 18:02:21 10° S
Cosmos 1680 Rocket 3.6 17:53:24 10° NNW 17:58:29 49° ENE 18:00:24 33° ESE
BREEZE-M DEB (TANK) 4.0 17:55:46 10° W 17:59:20 73° SSW 18:06:53 19° ESE
NOSS 3-2 (C) 3.9 17:54:29 10° WSW 17:59:36 48° NNW 18:03:20 22° NNE
NOAA 15 4.5 17:55:48 10° SSE 18:01:04 74° ENE 18:06:22 10° NNW
Cosmos 1076 Rocket 4.3 17:57:36 10° NNW 18:01:48 51° W 18:05:59 10° S
Meteor 2-10 4.2 17:56:38 10° NNW 18:02:03 82° W 18:07:38 10° S
NOAA 6 4.1 17:58:07 10° SE 18:03:03 53° ENE 18:08:00 10° N
Cosmos 2369 3.8 17:58:04 10° S 18:03:36 53° ESE 18:05:20 39° ENE
Resurs 01 Rocket 4.0 18:11:53 11° N 18:11:53 11° N 18:12:03 10° N
USA 81 4.2 18:05:56 10° N 18:11:13 75° W 18:16:27 10° S
Cosmos 44 Rocket 3.6 18:06:43 10° NNW 18:11:41 47° NE 18:11:53 47° NE
Cosmos 2227 Rocket 4.2 18:08:05 10° NW 18:12:54 30° WSW 18:17:42 10° SSW
SPOT 1/Viking Rocket 3.9 18:11:44 10° S 18:16:54 67° WSW 18:22:07 10° NNW
Cosmos 2058 Rocket 3.4 18:19:44 10° SSW 18:24:10 66° WNW 18:26:26 28° N
Cosmos 1697 Rocket 3.9 18:20:29 10° WSW 18:25:41 38° NW 18:29:16 18° N
OceanSat 1 rocket 4.5 18:21:45 10° SSE 18:26:30 87° ENE 18:31:14 10° NNW
USA 281 4.5 18:28:12 23° NNE 18:28:12 23° NNE 18:32:02 10° NNW
CENTAUR R/B 4.0 18:27:23 10° WNW 18:33:21 30° N 18:35:36 26° NNE
Cosmos 2333 Rocket 4.2 18:28:39 10° SSE 18:29:35 14° SSE 18:29:35 14° SSE
Lacrosse 5 rocket 3.0 18:30:41 10° NW 18:32:26 23° NNW 18:32:26 23° NNW
Meteor 2-11 Rocket 4.3 18:27:57 10° N 18:34:09 88° E 18:40:18 10° S
Cosmos 2278 Rocket 4.4 18:32:02 10° N 18:32:43 11° N 18:32:43 11° N
NOSS 2-3 (C) 4.2 18:32:01 10° WSW 18:34:52 39° WNW 18:34:52 39° WNW
Meteor 1-14 Rocket 4.1 18:32:34 10° N 18:38:22 74° ENE 18:39:10 64° SE
Resurs 1-3 4.4 18:39:39 10° S 18:43:49 49° W 18:48:01 10° NNW
Cosmos-2242 4.1 18:42:36 10° SW 18:46:38 41° WNW 18:47:46 34° NW
Cosmos 1898 Rocket 4.1 18:50:44 10° SW 18:55:45 51° WNW 18:56:45 44° NNW
Cosmos 1844 3.9 18:50:07 10° NNW 18:54:37 58° NNW 18:54:37 58° NNW
USA 215 3.4 18:59:28 57° NNE 18:59:43 57° NNE 19:06:07 10° WNW
Cosmos 2112 Rocket 4.2 18:55:00 10° NNW 18:59:47 66° WNW 18:59:47 66° WNW
USA 238 DEB 4.0 18:54:38 10° WSW 19:00:46 57° NW 19:02:15 48° N
USA 238 3.9 18:54:43 10° WSW 19:00:53 58° NW 19:02:21 48° N
Cosmos 1553 Rocket 4.4 18:55:00 10° SSW 19:01:06 60° WNW 19:07:21 10° N
YAOGAN 1 4.3 18:58:41 10° SSW 19:02:28 31° W 19:06:19 10° NNW
BREEZE-M DEB (TANK) 4.1 19:01:38 10° SW 19:06:16 40° SSW 19:06:16 40° SSW
Cosmos 1937 Rocket 4.2 19:06:10 10° SW 19:10:58 50° WNW 19:10:58 50° WNW
Meteor 2-6 Rocket 4.5 19:05:49 10° SSW 19:11:30 67° WNW 19:11:38 67° WNW
SL-16 R/B 3.6 19:08:50 10° SSW 19:11:20 27° SSW 19:11:20 27° SSW
Cosmos 1745 Rocket 4.2 19:10:03 10° NNW 19:16:11 66° W 19:22:13 10° S
COSMOS 2455 3.4 19:17:22 10° SW 19:21:46 51° SW 19:21:46 51° SW
Cosmos 1844 Rocket 3.6 19:23:17 10° NW 19:27:31 46° WNW 19:27:31 46° WNW
Cosmos 1980 Rocket 3.7 19:25:28 10° WSW 19:30:20 29° NW 19:31:07 28° NNW
CENTAUR R/B 4.4 20:18:53 10° NW 20:22:41 29° NNW 20:22:41 29° NNW
